STARLINK-31686, 59579

Orbit data source: Space-Track

STARLINK-31686, 59579 is a payload satellite owned by SpaceX/Seattle (US) in LEO that was launched on Tue, 23 Apr 2024 UTC via an FALCON 9 launch vehicle from the Air Force Eastern Test Range (AFETR). Payload-class satellites include a variety of spacecraft equipped with specific instruments for various scientific and technological missions. These include communications satellites like Starlink; space stations such as the ISS; scientific satellites like the Hubble; Earth observation satellites from companies like Planet Labs, Umbra, and HawkEye 360; GPS; miniature CubeSats for education and research; and military/defense satellites.

Loading next visibility...
Identifier
59579, 2024-076R
Orbit
LEO
Country
Flag of USUS
Related business
Manufacturer
SpaceX/Seattle
Mission
Operational Commercial Communications
Bus & Motor
STARLINK V2M, Unknown motor
Mass
730 kg wet, ~700 kg dry
Launch date (UTC)
2024-04-23 (2 years ago)
Launch vehicle
FALCON 9
Launch site
Air Force Eastern Test Range (AFETR)
Object type
Payload
Rocket body
Debris
Shape & HBR
Box + 2 Pan, 17.7 m
Radar Cross Section
33.884 m², Large (>1 m²)

Expand to show TLE details & history
Last TLE update: 7 hours ago

TLE from 7 hours ago
0 STARLINK-31686
1 59579U 24076R   26035.78316574  .00002123  00000-0  86663-4 0  9992
2 59579  43.0006 194.5234 0001010 276.4048  83.6689 15.27574448101471
Epoch: 2026-02-04T18:47Z
TLE epoch observation values (Epoch: 2026-02-04T18:47:45.519Z)
Latitude
-0.00001°
Longitude
137.63893°
Altitude
482.765 km
Speed
7.626 km/s
True Right ascension
12h 58m 05s
True Declination
0° 00' 00"
Sunlit
Object was in full shadow at epoch
Visualization orbit readout
Latitude
Unknown
Longitude
Unknown
Altitude
Unknown
Speed
Unknown
Apparent Right ascension
Unknown
Apparent Declination
Unknown
Sunlit
N/A
Visualization observer readout
Local Sidereal Time
03:54:48
Azimuth
Unknown
Elevation
Unknown
Doppler factor
Unknown
Orbital elements
Apogee altitude
485.704 km
Perigee altitude
484.318 km
Semi-major axis
6,863.148 km
Eccentricity
0.0001
Inclination
43.0006°
RAAN
194.5234°
Arg. of periapsis
276.4048°
True anomaly
83.6804°
Mean anomaly
83.6689°
Eccentric anomaly
83.67465°
Mean motion
3.81732 °/min
Orbital period
94.31 mins
BSTAR
0.000086663
Loading maneuver chart data...
Computing Atmospheric mass density...
Loading historical data...
Loading historical data...
Loading historical data...
Loading historical data...
Loading historical data...
Loading historical data...
Loading historical data...

Documentation

Showing up to 5 results
|